Retour au catalogue

FENGYUN 1C DEB

ActifSSO
NORAD 30703·DEBRIS·🇨🇳 China

Lancé May 10, 1999 depuis Taiyuan Satellite Launch Center

Loading…

Prochains Passages (prochaines 24 heures)

TLE

FraisSource: Space-Track

Époque: Sep 14, 2026, 11:10 UTC

1 30703U 99025ARM 26257.46565814  .00001239  00000-0  56172-3 0  9998
2 30703  99.1591 256.8874 0114543 227.4459 288.0815 14.20424234  4484

Suivez FENGYUN 1C DEB en temps réel avec AllMySat

Download on the App Store